Meteo pe oră la Bolshoe Afanasovo

Astăzi, 8 Mai, Sâmbătă

Timp Temperatura Precipitaţii Vânt Presiune Umiditate
00:00 +13°C° 0 mm 2 m/s 753 mmHg 70%
01:00 +13°C° 0 mm 2 m/s 754 mmHg 72%
02:00 +12°C° 0 mm 1 m/s 754 mmHg 74%
03:00 +12°C° 0 mm 1 m/s 754 mmHg 76%
04:00 +12°C° 0 mm 1 m/s 754 mmHg 76%
05:00 +13°C° 0 mm 1 m/s 754 mmHg 75%
06:00 +12°C° 0 mm 0 m/s 754 mmHg 75%
07:00 +13°C° 0.1 mm 1 m/s 755 mmHg 77%
08:00 +13°C° 0.1 mm 1 m/s 755 mmHg 79%
09:00 +13°C° 0.1 mm 1 m/s 755 mmHg 81%
10:00 +15°C° 0.4 mm 1 m/s 755 mmHg 73%
11:00 +16°C° 0.4 mm 2 m/s 755 mmHg 65%
12:00 +18°C° 0.4 mm 2 m/s 754 mmHg 57%
13:00 +18°C° 0.4 mm 2 m/s 754 mmHg 56%
14:00 +18°C° 0.4 mm 2 m/s 754 mmHg 55%
15:00 +19°C° 0.4 mm 1 m/s 754 mmHg 55%
16:00 +19°C° 0 mm 1 m/s 754 mmHg 58%
17:00 +18°C° 0 mm 1 m/s 754 mmHg 61%
18:00 +17°C° 0 mm 2 m/s 754 mmHg 64%
19:00 +16°C° 0 mm 2 m/s 754 mmHg 68%
20:00 +14°C° 0 mm 2 m/s 754 mmHg 72%
21:00 +13°C° 0 mm 2 m/s 754 mmHg 75%
22:00 +13°C° 0 mm 2 m/s 754 mmHg 76%
23:00 +12°C° 0 mm 2 m/s 753 mmHg 76%

Mâine, 9 Mai, Duminică

Timp Temperatura Precipitaţii Vânt Presiune Umiditate
00:00 +12°C° 0 mm 2 m/s 753 mmHg 77%
01:00 +12°C° 0 mm 2 m/s 753 mmHg 78%
02:00 +10°C° 0 mm 2 m/s 753 mmHg 78%
03:00 +10°C° 0 mm 2 m/s 753 mmHg 79%
04:00 +12°C° 0 mm 2 m/s 753 mmHg 77%
05:00 +13°C° 0 mm 2 m/s 753 mmHg 74%
06:00 +13°C° 0 mm 3 m/s 753 mmHg 72%
07:00 +16°C° 0 mm 3 m/s 753 mmHg 65%
08:00 +18°C° 0 mm 4 m/s 753 mmHg 58%
09:00 +20°C° 0 mm 5 m/s 753 mmHg 50%
10:00 +21°C° 0 mm 5 m/s 753 mmHg 47%
11:00 +22°C° 0 mm 5 m/s 753 mmHg 44%
12:00 +23°C° 0 mm 5 m/s 753 mmHg 41%
13:00 +23°C° 0 mm 5 m/s 753 mmHg 40%
14:00 +23°C° 0 mm 5 m/s 753 mmHg 39%
15:00 +25°C° 0 mm 5 m/s 752 mmHg 38%
16:00 +22°C° 0 mm 4 m/s 752 mmHg 44%
17:00 +21°C° 0 mm 3 m/s 753 mmHg 50%
18:00 +20°C° 0 mm 2 m/s 753 mmHg 57%
19:00 +19°C° 0 mm 2 m/s 753 mmHg 58%
20:00 +18°C° 0 mm 2 m/s 753 mmHg 60%
21:00 +17°C° 0 mm 2 m/s 753 mmHg 62%
22:00 +16°C° 0 mm 2 m/s 753 mmHg 63%
23:00 +16°C° 0 mm 2 m/s 753 mmHg 64%

Poimâine, 10 Mai, Luni

Timp Temperatura Precipitaţii Vânt Presiune Umiditate
00:00 +15°C° 0 mm 2 m/s 753 mmHg 65%
01:00 +15°C° 0 mm 2 m/s 754 mmHg 69%
02:00 +14°C° 0 mm 1 m/s 754 mmHg 73%
03:00 +14°C° 0 mm 1 m/s 755 mmHg 77%
04:00 +14°C° 0 mm 1 m/s 755 mmHg 77%
05:00 +15°C° 0 mm 1 m/s 755 mmHg 77%
06:00 +15°C° 0 mm 2 m/s 756 mmHg 77%
07:00 +17°C° 0 mm 2 m/s 756 mmHg 71%
08:00 +19°C° 0 mm 1 m/s 756 mmHg 66%
09:00 +20°C° 0 mm 1 m/s 757 mmHg 61%
10:00 +19°C° 0 mm 2 m/s 757 mmHg 61%
11:00 +20°C° 0 mm 3 m/s 757 mmHg 62%
12:00 +20°C° 0 mm 3 m/s 758 mmHg 62%
13:00 +19°C° 0.4 mm 4 m/s 758 mmHg 66%
14:00 +17°C° 0.4 mm 5 m/s 758 mmHg 70%
15:00 +16°C° 0.4 mm 5 m/s 759 mmHg 75%
16:00 +15°C° 0.1 mm 5 m/s 759 mmHg 75%
17:00 +14°C° 0.1 mm 5 m/s 760 mmHg 76%
18:00 +14°C° 0.1 mm 5 m/s 760 mmHg 77%
19:00 +12°C° 0 mm 5 m/s 761 mmHg 79%
20:00 +11°C° 0 mm 4 m/s 761 mmHg 80%
21:00 +10°C° 0 mm 4 m/s 761 mmHg 82%
22:00 +10°C° 0 mm 4 m/s 762 mmHg 84%
23:00 +10°C° 0 mm 4 m/s 762 mmHg 86%

11 Mai, Marţi

Timp Temperatura Precipitaţii Vânt Presiune Umiditate
00:00 +8°C° 0 mm 4 m/s 762 mmHg 89%
01:00 +8°C° 0 mm 4 m/s 762 mmHg 91%
02:00 +7°C° 0 mm 4 m/s 762 mmHg 93%
03:00 +7°C° 0 mm 3 m/s 763 mmHg 95%
04:00 +7°C° 0 mm 4 m/s 763 mmHg 91%
05:00 +7°C° 0 mm 4 m/s 763 mmHg 86%
06:00 +8°C° 0 mm 5 m/s 763 mmHg 82%
07:00 +11°C° 0 mm 4 m/s 764 mmHg 75%
08:00 +12°C° 0 mm 4 m/s 764 mmHg 68%
09:00 +13°C° 0 mm 4 m/s 764 mmHg 62%
10:00 +15°C° 0 mm 4 m/s 764 mmHg 57%
11:00 +17°C° 0 mm 4 m/s 764 mmHg 52%
12:00 +18°C° 0 mm 4 m/s 764 mmHg 47%
13:00 +18°C° 0 mm 4 m/s 764 mmHg 45%
14:00 +19°C° 0 mm 4 m/s 764 mmHg 43%
15:00 +19°C° 0 mm 4 m/s 764 mmHg 40%
16:00 +18°C° 0 mm 4 m/s 764 mmHg 44%
17:00 +17°C° 0 mm 3 m/s 764 mmHg 48%
18:00 +16°C° 0 mm 3 m/s 764 mmHg 51%
19:00 +15°C° 0 mm 2 m/s 764 mmHg 52%
20:00 +14°C° 0 mm 2 m/s 764 mmHg 53%
21:00 +12°C° 0 mm 2 m/s 765 mmHg 54%
22:00 +12°C° 0 mm 2 m/s 765 mmHg 55%
23:00 +10°C° 0 mm 2 m/s 765 mmHg 55%

12 Mai, Miercuri

Timp Temperatura Precipitaţii Vânt Presiune Umiditate
00:00 +9°C° 0 mm 3 m/s 765 mmHg 56%
01:00 +9°C° 0 mm 2 m/s 765 mmHg 57%
02:00 +9°C° 0 mm 2 m/s 765 mmHg 58%
03:00 +8°C° 0 mm 2 m/s 765 mmHg 60%
04:00 +9°C° 0 mm 2 m/s 765 mmHg 59%
05:00 +10°C° 0 mm 2 m/s 765 mmHg 59%
06:00 +12°C° 0 mm 2 m/s 766 mmHg 59%
07:00 +13°C° 0 mm 3 m/s 765 mmHg 54%
08:00 +14°C° 0 mm 3 m/s 765 mmHg 49%
09:00 +17°C° 0 mm 3 m/s 765 mmHg 43%
10:00 +18°C° 0 mm 3 m/s 765 mmHg 43%
11:00 +19°C° 0 mm 3 m/s 765 mmHg 42%
12:00 +20°C° 0 mm 3 m/s 765 mmHg 41%
13:00 +20°C° 0 mm 3 m/s 765 mmHg 41%
14:00 +21°C° 0 mm 3 m/s 764 mmHg 42%
15:00 +21°C° 0 mm 3 m/s 764 mmHg 42%
16:00 +21°C° 0 mm 2 m/s 764 mmHg 47%
17:00 +20°C° 0 mm 2 m/s 764 mmHg 52%
18:00 +20°C° 0 mm 2 m/s 764 mmHg 57%
19:00 +19°C° 0 mm 1 m/s 764 mmHg 59%
20:00 +18°C° 0 mm 1 m/s 764 mmHg 61%
21:00 +16°C° 0 mm 1 m/s 764 mmHg 63%
22:00 +15°C° 0 mm 1 m/s 764 mmHg 65%
23:00 +15°C° 0 mm 1 m/s 764 mmHg 66%

13 Mai, Joi

Timp Temperatura Precipitaţii Vânt Presiune Umiditate
00:00 +14°C° 0 mm 1 m/s 764 mmHg 67%
01:00 +14°C° 0 mm 1 m/s 764 mmHg 69%
02:00 +14°C° 0 mm 1 m/s 764 mmHg 71%
03:00 +13°C° 0 mm 1 m/s 764 mmHg 73%
04:00 +14°C° 0 mm 1 m/s 764 mmHg 71%
05:00 +15°C° 0 mm 1 m/s 764 mmHg 70%
06:00 +16°C° 0 mm 1 m/s 764 mmHg 68%
07:00 +19°C° 0 mm 1 m/s 764 mmHg 63%
08:00 +21°C° 0 mm 1 m/s 764 mmHg 57%
09:00 +23°C° 0 mm 1 m/s 763 mmHg 52%
10:00 +24°C° 0 mm 2 m/s 763 mmHg 49%
11:00 +24°C° 0 mm 2 m/s 763 mmHg 45%
12:00 +25°C° 0 mm 2 m/s 763 mmHg 42%
13:00 +26°C° 0 mm 2 m/s 763 mmHg 41%
14:00 +26°C° 0 mm 2 m/s 762 mmHg 40%
15:00 +26°C° 0 mm 2 m/s 762 mmHg 39%
16:00 +25°C° 0 mm 2 m/s 762 mmHg 44%
17:00 +25°C° 0 mm 2 m/s 762 mmHg 48%
18:00 +24°C° 0 mm 1 m/s 762 mmHg 53%
19:00 +22°C° 0 mm 1 m/s 762 mmHg 55%
20:00 +21°C° 0 mm 1 m/s 762 mmHg 57%
21:00 +19°C° 0 mm 1 m/s 762 mmHg 59%
22:00 +19°C° 0 mm 1 m/s 762 mmHg 60%
23:00 +17°C° 0 mm 0 m/s 762 mmHg 61%
Arată mai mult

Formular de consimțământ

Meteoprog și furnizorii noștri de servicii pot stoca și accesa date personale, precum cookies, identificatori de dispozitiv sau alte tehnologii similare pe dispozitivul dumneavoastră și procesa astfel de date pentru a personaliza conținutul și reclamele, dar și pentru a oferi caracteristici de social media și pentru a analiza traficul.

  • Stocarea și/sau accesarea informațiilor pe dispozitivul dumneavoastră

    Cookies, identificatori de dispozitiv sau alte informații pot fi stocate sau accesate pe dispozitiv în scopurile indicate mai sus.

  • Reclame și conținut personalizat, evaluarea reclamelor și a conținutului, informații despre audiențe și dezvoltarea produselor

    Reclamele și conținutul pot fi personalizate pe baza unui profil. Pot fi adăugate date suplimentare pentru a personaliza mai bine reclamele și conținutul. Performanța reclamelor și conținutului poate fi măsurată. Pot fi obținute informații despre utilizatorii care au văzut reclamele și conținutul. Aceste date pot fi utilizate pentru a dezvolta sau îmbunătăți experiența utilizatorilor, sistemele și software-ul.

Dând clic pe ‘Sunt de acord’, permiteți utilizarea cookie-urilor menționate, a identificatorilor de dispozitiv, balizelor web sau altor tehnologii similare. Setările pot fi modificate din browser-ul dispozitivului dumneavoastră.

În anumite scopuri, interesele legitime pot prima asupra consimțământului. Puteți citi mai multe informații în acest sens în Politica privind Confidențialitatea Datelor și Cookie.